period_start,C,m1,H,J0,J1,J2,J3,J4,J5,JA,JB,JC,JD,JJ,JK,JN,#
2015-11-12 00:02:05,0.09,0.35,0.00,13.87,18.79,22.71,15.10,49.34,1019.05,2070.01,3283.98,2981.06,3293.76,600.01,616.47,3.60,0000 0000 0000 0000 000000
2015-11-12 00:07:07,0.10,0.36,0.00,13.91,18.79,22.69,15.12,49.33,1019.06,2070.02,3282.03,2979.67,3292.18,600.07,616.48,3.65,0000 0000 0000 0000 000000
2015-11-12 00:12:08,0.11,0.36,0.00,13.91,18.79,22.68,15.19,49.17,1019.06,2070.03,3280.02,2978.16,3290.35,600.21,616.65,3.70,0000 0000 0000 0000 000000
2015-11-12 00:17:09,0.11,0.37,0.00,13.85,18.79,22.70,15.18,49.35,1019.06,2070.02,3277.73,2976.36,3288.38,599.88,616.35,3.75,0000 0000 0000 0000 000000
2015-11-12 00:22:10,0.10,0.37,0.00,13.87,18.79,22.68,15.14,49.33,1019.07,2070.03,3275.65,2974.85,3286.74,599.96,616.45,3.80,0000 0000 0000 0000 000000
2015-11-12 00:27:12,0.08,0.38,0.00,13.87,18.79,22.69,15.13,49.30,1019.06,2070.04,3273.82,2973.68,3285.33,600.00,616.54,3.85,0000 0000 0000 0000 000000
2015-11-12 00:32:13,0.08,0.38,0.00,13.89,18.79,22.70,15.15,49.33,1019.06,2070.02,3272.02,2972.39,3283.83,599.95,616.38,3.90,0000 0000 0000 0000 000000
2015-11-12 00:37:14,0.08,0.39,0.00,13.85,18.79,22.69,15.15,49.35,1019.07,2070.02,3270.16,2971.13,3282.39,600.19,616.66,3.95,0000 0000 0000 0000 000000
2015-11-12 00:42:15,0.15,0.39,0.00,13.82,18.79,22.71,15.15,49.29,1019.07,2070.03,3267.85,2969.12,3280.23,599.98,616.58,4.00,0000 0000 0000 0000 000000
2015-11-12 00:47:16,0.09,0.40,0.00,13.86,18.79,22.69,15.16,49.46,1019.08,2070.03,3265.67,2967.45,3278.41,600.04,616.56,4.05,0000 0000 0000 0000 000000
2015-11-12 00:52:18,0.10,0.40,0.00,13.89,18.78,22.71,15.16,49.33,1019.08,2070.03,3263.66,2965.91,3276.73,600.08,616.45,4.10,0000 0000 0000 0000 000000
2015-11-12 00:57:19,0.09,0.41,0.00,13.88,18.78,22.68,15.16,49.34,1019.10,2070.02,3261.80,2964.46,3275.12,600.12,616.77,4.15,0000 0000 0000 0000 000000
2015-11-12 01:02:20,0.10,0.41,0.00,13.89,18.78,22.74,15.17,49.38,1019.15,2070.01,3259.84,2962.89,3273.35,600.18,616.67,4.20,0000 0000 0000 0000 000000
2015-11-12 01:07:21,0.10,0.42,0.00,13.87,18.77,22.73,15.18,49.36,1019.15,2070.01,3257.72,2961.36,3271.62,600.15,616.69,4.25,0000 0000 0000 0000 000000
2015-11-12 01:12:22,0.10,0.42,0.00,13.84,18.77,22.72,15.16,49.35,1019.19,2070.03,3255.71,2959.90,3269.78,600.05,616.74,4.30,0000 0000 0000 0000 000000
2015-11-12 01:17:24,0.09,0.43,0.00,13.89,18.77,22.72,15.15,49.36,1019.29,2070.02,3253.72,2958.49,3268.21,600.13,616.69,4.35,0000 0000 0000 0000 000000
2015-11-12 01:22:25,0.10,0.43,0.00,13.92,18.77,22.68,15.17,49.37,1019.45,2070.01,3251.68,2956.89,3266.52,599.85,616.51,4.40,0000 0000 0000 0000 000000
2015-11-12 01:27:26,0.09,0.44,0.00,13.90,18.77,22.69,15.18,49.35,1019.54,2070.01,3249.73,2955.57,3265.00,600.02,616.71,4.45,0000 0000 0000 0000 000000
2015-11-12 01:32:27,0.08,0.44,0.00,13.93,18.77,22.67,15.25,49.38,1019.55,2070.00,3247.88,2954.25,3263.56,600.39,617.01,4.50,0000 0000 0000 0000 000000
2015-11-12 01:37:29,0.10,0.45,0.00,13.89,18.77,22.71,15.12,49.40,1019.55,2070.01,3245.90,2952.75,3262.16,600.05,616.76,4.55,0000 0000 0000 0000 000000
2015-11-12 01:42:30,0.09,0.45,0.00,13.88,18.77,22.70,15.17,49.42,1019.55,2070.01,3243.93,2951.37,3260.51,599.73,616.68,4.60,0000 0000 0000 0000 000000
2015-11-12 01:47:31,0.09,0.46,0.00,13.90,18.77,22.68,15.06,49.36,1019.58,2070.01,3242.03,2949.97,3258.88,599.99,616.72,4.65,0000 0000 0000 0000 000000
2015-11-12 01:52:33,0.09,0.46,0.00,13.92,18.77,22.67,15.19,49.42,1019.60,2070.03,3240.20,2948.67,3257.47,600.06,616.74,4.70,0000 0000 0000 0000 000000
2015-11-12 01:57:34,0.10,0.47,0.00,13.94,18.77,22.67,15.07,49.28,1019.67,2070.01,3238.18,2947.18,3255.76,599.90,616.72,4.75,0000 0000 0000 0000 000000
2015-11-12 02:02:35,0.11,0.47,0.00,13.91,18.77,22.73,15.13,49.39,1019.80,2070.00,3235.97,2945.62,3254.00,599.78,616.75,4.80,0000 0000 0000 0000 000000
2015-11-12 02:07:36,0.10,0.48,0.00,13.87,18.77,22.74,15.12,49.43,1019.99,2070.01,3233.79,2943.94,3252.34,599.94,616.97,4.85,0000 0000 0000 0000 000000
2015-11-12 02:12:38,0.10,0.48,0.00,13.90,18.77,22.72,15.23,49.42,1020.03,2070.00,3231.69,2942.47,3250.56,600.24,617.24,4.90,0000 0000 0000 0000 000000
2015-11-12 02:17:39,0.09,0.49,0.00,13.93,18.77,22.67,15.14,49.34,1020.03,2070.01,3229.78,2941.09,3249.06,600.06,616.88,4.95,0000 0000 0000 0000 000000
2015-11-12 02:22:40,0.09,0.49,0.00,13.90,18.77,22.71,15.23,49.44,1020.03,2070.01,3227.84,2939.74,3247.59,600.35,617.37,5.00,0000 0000 0000 0000 000000
2015-11-12 02:27:41,0.09,0.50,0.00,13.86,18.77,22.67,15.11,49.33,1020.03,2070.01,3225.76,2938.38,3246.03,600.04,617.12,5.06,0000 0000 0000 0000 000000
2015-11-12 02:32:43,0.10,0.50,0.00,13.88,18.77,22.70,15.17,49.41,1020.03,2070.01,3223.76,2936.88,3244.53,599.88,616.99,5.11,0000 0000 0000 0000 000000
2015-11-12 02:37:44,0.10,0.51,0.00,13.87,18.77,22.70,15.24,49.52,1020.04,2070.01,3221.49,2935.52,3242.82,600.19,617.35,5.16,0000 0000 0000 0000 000000
2015-11-12 02:42:45,0.14,0.52,0.00,13.89,18.77,22.67,15.19,49.54,1020.07,2070.04,3218.58,2933.64,3240.85,600.24,617.14,5.21,0000 0000 0000 0000 000000
2015-11-12 02:47:46,0.12,0.52,0.00,13.88,18.77,22.67,15.15,49.45,1020.17,2070.03,3215.98,2931.88,3238.82,599.93,617.04,5.26,0000 0000 0000 0000 000000
2015-11-12 02:52:48,0.19,0.53,0.00,13.83,18.77,22.74,15.24,49.38,1020.36,2070.03,3212.50,2929.34,3236.03,600.23,617.63,5.31,0000 0000 0000 0000 000000
2015-11-12 02:57:49,0.16,0.54,0.00,13.86,18.77,22.69,15.19,49.48,1020.47,2070.02,3209.15,2926.83,3233.32,599.92,617.26,5.36,0000 0000 0000 0000 000000
2015-11-12 03:02:50,0.14,0.55,0.00,13.89,18.77,22.67,15.18,49.42,1020.51,2070.02,3205.94,2924.64,3230.84,599.92,617.31,5.41,0000 0000 0000 0000 000000
2015-11-12 03:07:51,0.13,0.55,0.00,13.87,18.77,22.68,15.22,49.52,1020.52,2070.02,3203.16,2922.78,3228.76,600.04,617.40,5.46,0000 0000 0000 0000 000000
2015-11-12 03:12:53,0.11,0.56,0.00,13.87,18.77,22.65,15.17,49.55,1020.52,2070.03,3200.79,2921.16,3226.85,600.24,617.55,5.51,0000 0000 0000 0000 000000
2015-11-12 03:17:54,0.11,0.57,0.00,13.87,18.76,22.66,15.20,49.41,1020.52,2070.02,3198.65,2919.43,3224.97,599.83,617.25,5.56,0000 0000 0000 0000 000000
2015-11-12 03:22:56,0.07,0.57,0.00,13.88,18.75,22.66,15.17,49.48,1020.55,2070.01,3196.91,2918.11,3223.52,599.59,616.95,5.61,0000 0000 0000 0000 000000
2015-11-12 03:27:57,0.09,0.57,0.00,13.91,18.75,22.67,15.22,49.54,1020.65,2070.03,3195.28,2916.93,3222.11,600.22,617.53,5.66,0000 0000 0000 0000 000000
2015-11-12 03:32:58,0.09,0.58,0.00,13.89,18.75,22.65,15.07,49.47,1020.77,2070.01,3193.51,2915.52,3220.51,599.52,616.96,5.71,0000 0000 0000 0000 000000
2015-11-12 03:37:59,0.07,0.58,0.00,13.83,18.75,22.64,15.19,49.42,1020.80,2070.02,3192.01,2914.31,3219.25,600.04,617.47,5.76,0000 0000 0000 0000 000000
2015-11-12 03:43:00,0.06,0.59,0.00,13.88,18.74,22.66,15.17,49.47,1020.97,2070.03,3190.63,2913.58,3218.39,600.32,617.91,5.81,0000 0000 0000 0000 000000
2015-11-12 03:48:02,0.08,0.59,0.00,13.89,18.74,22.64,15.16,49.54,1021.01,2070.02,3189.12,2912.43,3216.93,600.05,617.66,5.86,0000 0000 0000 0000 000000
2015-11-12 03:53:03,0.09,0.60,0.00,13.85,18.74,22.69,15.19,49.54,1021.01,2070.07,3187.40,2911.24,3215.43,599.89,617.59,5.91,0000 0000 0000 0000 000000
2015-11-12 03:58:04,0.06,0.60,0.00,13.86,18.74,22.69,15.22,49.57,1021.02,2070.06,3185.89,2910.11,3214.24,600.42,618.07,5.96,0000 0000 0000 0000 000000
2015-11-12 04:03:05,0.07,0.60,0.00,13.87,18.74,22.63,15.15,49.57,1021.05,2070.06,3184.51,2909.10,3213.01,600.22,617.90,6.01,0000 0000 0000 0000 000000
2015-11-12 04:08:07,0.06,0.61,0.00,13.89,18.74,22.66,15.21,49.44,1021.09,2070.04,3183.01,2908.06,3211.81,600.10,617.77,6.06,0000 0000 0000 0000 000000
2015-11-12 04:13:08,0.08,0.61,0.00,13.91,18.74,22.70,15.15,49.58,1021.19,2070.04,3181.50,2906.96,3210.57,599.94,617.62,6.11,0000 0000 0000 0000 000000
2015-11-12 04:18:09,0.09,0.61,0.00,13.87,18.74,22.65,15.23,49.90,1021.40,2070.04,3179.83,2905.61,3209.13,600.16,618.07,6.16,0000 0000 0000 0000 000000
2015-11-12 04:23:11,0.08,0.62,0.00,13.88,18.74,22.65,15.07,49.58,1021.46,2070.03,3178.26,2904.56,3207.73,599.63,617.53,6.21,0000 0000 0000 0000 000000
2015-11-12 04:28:12,0.08,0.62,0.00,13.92,18.74,22.65,15.19,49.68,1021.43,2070.03,3176.55,2903.35,3206.29,600.02,617.90,6.26,0000 0000 0000 0000 000000
2015-11-12 04:33:13,0.08,0.63,0.00,13.92,18.74,22.62,15.13,49.45,1021.47,2070.02,3174.88,2902.12,3204.88,599.75,617.55,6.31,0000 0000 0000 0000 000000
2015-11-12 04:38:15,0.07,0.63,0.00,13.88,18.74,22.64,15.24,49.67,1021.49,2070.02,3173.52,2901.00,3203.74,600.30,618.22,6.36,0000 0000 0000 0000 000000
2015-11-12 04:43:16,0.07,0.63,0.00,13.89,18.74,22.65,15.25,49.63,1021.50,2070.00,3171.91,2899.97,3202.45,600.23,618.16,6.41,0000 0000 0000 0000 000000
2015-11-12 04:48:18,0.07,0.64,0.00,13.91,18.74,22.67,15.17,49.42,1021.50,2070.00,3170.59,2899.01,3201.34,600.06,617.82,6.46,0000 0000 0000 0000 000000
2015-11-12 04:53:19,0.05,0.64,0.00,13.91,18.74,22.70,15.18,49.41,1021.50,2070.00,3169.46,2898.25,3200.38,600.06,617.81,6.51,0000 0000 0000 0000 000000
2015-11-12 04:58:20,0.09,0.64,0.00,13.88,18.74,22.66,15.18,49.58,1021.50,2070.01,3167.72,2897.50,3199.24,600.25,618.19,6.56,0000 0000 0000 0000 000000
2015-11-12 05:03:22,0.08,0.65,0.00,13.87,18.74,22.68,15.20,49.72,1021.52,2070.01,3165.54,2896.04,3197.77,599.84,617.79,6.61,0000 0000 0000 0000 000000
2015-11-12 05:08:23,0.12,0.65,0.00,13.90,18.74,22.68,15.24,49.75,1021.58,2070.00,3163.36,2894.46,3196.04,600.03,618.02,6.66,0000 0000 0000 0000 000000
2015-11-12 05:13:24,0.09,0.66,0.00,13.91,18.74,22.67,15.21,49.68,1021.67,2070.00,3161.22,2893.07,3194.32,600.21,618.18,6.71,0000 0000 0000 0000 000000
2015-11-12 05:18:26,0.11,0.67,0.00,13.88,18.74,22.69,15.23,49.80,1021.82,2070.00,3159.02,2891.53,3192.54,600.20,618.33,6.76,0000 0000 0000 0000 000000
2015-11-12 05:23:27,0.11,0.67,0.00,13.88,18.74,22.65,15.19,49.50,1021.91,2070.00,3156.86,2889.97,3190.66,599.96,618.13,6.81,0000 0000 0000 0000 000000
2015-11-12 05:28:28,0.12,0.68,0.00,13.93,18.74,22.66,15.13,49.51,1021.97,2070.00,3154.71,2888.22,3188.67,599.79,618.01,6.86,0000 0000 0000 0000 000000
2015-11-12 05:33:30,0.11,0.68,0.00,13.94,18.74,22.62,15.27,49.76,1021.98,2070.00,3152.87,2886.58,3186.63,600.25,618.36,6.91,0000 0000 0000 0000 000000
2015-11-12 05:38:31,0.08,0.69,0.00,14.01,18.74,22.63,15.17,49.73,1021.99,2070.00,3151.13,2885.29,3185.05,600.40,618.36,6.96,0000 0000 0000 0000 000000
2015-11-12 05:43:32,0.17,0.69,0.00,14.28,18.74,22.36,15.17,49.83,1021.99,2070.00,3148.53,2883.33,3182.67,599.79,617.15,7.01,0000 0000 0000 0000 000000
2015-11-12 05:48:34,0.45,0.71,0.00,14.24,18.76,22.36,15.05,49.73,1021.99,2069.99,3141.03,2878.17,3176.74,599.47,616.89,7.06,0000 0000 0000 0000 000000
2015-11-12 05:53:35,0.58,0.74,0.00,14.23,18.77,22.39,15.13,49.64,1022.00,2069.98,3128.64,2869.99,3167.65,599.94,617.41,7.11,0000 0000 0000 0000 000000
2015-11-12 05:58:36,0.76,0.77,0.00,14.24,18.77,22.46,15.14,49.84,1022.00,2069.93,3114.62,2860.76,3157.63,599.99,617.40,7.16,0000 0000 0000 0000 000000
2015-11-12 06:03:37,0.35,0.80,0.00,14.22,18.78,22.55,15.17,49.89,1022.04,2069.77,3104.12,2853.90,3150.17,600.19,617.72,7.21,0000 0000 0000 0000 000000
2015-11-12 06:08:38,0.19,0.81,0.00,14.22,18.79,22.52,15.13,49.66,1022.11,2069.41,3099.12,2850.61,3146.47,599.98,617.50,7.26,0000 0000 0000 0000 000000
2015-11-12 06:13:39,0.20,0.82,0.00,14.21,18.79,22.62,15.19,49.75,1022.38,2069.18,3094.78,2847.70,3143.09,600.16,617.81,7.31,0000 0000 0000 0000 000000
2015-11-12 06:18:40,0.16,0.83,0.00,14.18,18.79,22.64,15.08,49.77,1022.47,2069.11,3091.45,2845.18,3140.22,599.61,617.55,7.37,0000 0000 0000 0000 000000
2015-11-12 06:23:42,0.21,0.84,0.00,14.21,18.79,22.68,15.25,49.88,1022.47,2069.04,3087.41,2842.56,3137.20,600.20,618.02,7.42,0000 0000 0000 0000 000000
2015-11-12 06:28:44,0.20,0.85,0.00,14.20,18.80,22.73,15.13,49.76,1022.48,2069.03,3082.44,2839.66,3134.07,600.08,617.90,7.47,0000 0000 0000 0000 000000
2015-11-12 06:33:45,0.22,0.86,0.00,14.20,18.81,22.72,15.19,49.77,1022.48,2069.01,3077.84,2836.89,3130.95,600.62,618.54,7.52,0000 0000 0000 0000 000000
2015-11-12 06:38:46,0.16,0.87,0.00,14.23,18.81,22.75,15.22,49.74,1022.48,2069.00,3073.92,2834.47,3128.11,600.15,617.94,7.57,0000 0000 0000 0000 000000
2015-11-12 06:43:47,0.10,0.88,0.00,14.23,18.81,22.74,15.17,49.87,1022.49,2069.01,3071.48,2832.90,3126.38,600.09,617.83,7.62,0000 0000 0000 0000 000000
2015-11-12 06:48:48,0.12,0.89,0.00,14.23,18.81,22.80,15.18,49.74,1022.49,2069.00,3069.20,2831.45,3124.58,599.93,617.61,7.67,0000 0000 0000 0000 000000
2015-11-12 06:53:49,0.12,0.89,0.00,14.29,18.82,22.81,15.16,49.80,1022.49,2069.00,3066.55,2829.77,3122.69,599.74,617.38,7.72,0000 0000 0000 0000 000000
2015-11-12 06:58:51,0.08,0.90,0.00,14.35,18.82,22.74,15.14,49.67,1022.63,2069.00,3064.80,2828.70,3121.40,599.78,617.41,7.77,0000 0000 0000 0000 000000
2015-11-12 07:03:52,0.10,0.90,0.00,14.42,18.82,22.79,15.12,49.59,1022.88,2069.00,3062.61,2827.44,3119.80,600.16,617.64,7.82,0000 0000 0000 0000 000000
2015-11-12 07:08:53,0.08,0.91,0.00,14.54,18.82,22.82,15.11,49.60,1022.95,2069.00,3060.56,2826.12,3118.31,599.71,617.07,7.87,0000 0000 0000 0000 000000
2015-11-12 07:13:55,0.11,0.91,0.00,14.65,18.84,22.75,15.08,49.58,1022.96,2069.00,3058.76,2824.79,3116.72,599.87,616.95,7.92,0000 0000 0000 0000 000000
2015-11-12 07:18:56,0.10,0.92,0.00,14.70,18.84,22.74,15.15,49.76,1022.96,2068.99,3056.79,2823.49,3115.03,600.22,617.26,7.97,0000 0000 0000 0000 000000
2015-11-12 07:23:58,0.09,0.92,0.00,14.75,18.86,22.73,15.07,49.68,1022.96,2068.98,3054.90,2822.20,3113.51,600.14,617.09,8.02,0000 0000 0000 0000 000000
2015-11-12 07:28:59,0.13,0.93,0.00,14.79,18.88,22.68,15.07,49.82,1022.97,2068.96,3052.50,2820.61,3111.52,599.80,616.76,8.07,0000 0000 0000 0000 000000
2015-11-12 07:34:00,0.30,0.94,0.00,14.87,18.89,22.71,15.15,49.78,1022.97,2068.88,3047.17,2817.17,3107.58,600.29,616.87,8.12,0000 0000 0000 0000 000000
2015-11-12 07:39:01,0.40,0.96,0.00,14.90,18.92,22.66,15.17,49.68,1023.03,2068.68,3039.48,2812.18,3101.67,600.26,616.91,8.17,0000 0000 0000 0000 000000
2015-11-12 07:44:03,0.13,0.97,0.00,14.92,18.93,22.67,15.09,49.69,1023.20,2068.25,3034.38,2808.79,3097.38,599.97,616.65,8.22,0000 0000 0000 0000 000000
2015-11-12 07:49:04,0.11,0.98,0.00,14.98,18.94,22.67,15.16,49.76,1023.15,2068.08,3032.06,2807.12,3095.27,600.13,616.60,8.27,0000 0000 0000 0000 000000
2015-11-12 07:54:05,0.35,0.99,0.00,15.03,18.97,22.72,15.09,49.75,1023.33,2068.01,3026.86,2803.41,3091.27,600.36,616.94,8.32,0000 0000 0000 0000 000000
2015-11-12 07:59:07,1.30,1.04,0.00,15.03,18.98,22.78,15.12,49.68,1023.45,2068.00,3005.69,2788.72,3075.58,600.17,616.73,8.37,0000 0000 0000 0000 000000
2015-11-12 08:04:08,0.78,1.09,0.00,15.06,19.00,22.81,15.05,49.74,1023.45,2068.00,2987.41,2776.34,3062.38,599.83,616.33,8.42,0000 0000 0000 0000 000000
2015-11-12 08:09:09,0.51,1.12,0.00,15.14,19.02,22.78,15.05,49.72,1023.45,2067.99,2976.36,2769.25,3054.70,600.14,616.57,8.47,0000 0000 0000 0000 000000
2015-11-12 08:14:10,0.20,1.13,0.00,15.16,19.04,22.79,15.08,49.76,1023.45,2067.99,2971.02,2765.83,3050.86,600.06,616.44,8.52,0000 0000 0000 0000 000000
2015-11-12 08:19:12,0.15,1.14,0.00,15.17,19.05,22.86,15.04,49.66,1023.45,2067.93,2967.97,2763.88,3048.53,600.27,616.61,8.57,0000 0000 0000 0000 000000
2015-11-12 08:24:13,0.22,1.15,0.00,15.22,19.08,22.89,15.10,49.78,1023.45,2067.70,2963.80,2760.91,3045.29,600.07,616.25,8.62,0000 0000 0000 0000 000000
2015-11-12 08:29:15,0.48,1.17,0.00,15.27,19.10,22.89,14.99,49.73,1023.46,2067.38,2955.47,2754.60,3038.28,599.87,615.94,8.67,0000 0000 0000 0000 000000
2015-11-12 08:34:16,0.46,1.19,0.00,15.27,19.12,22.94,15.14,49.75,1023.49,2067.11,2946.70,2748.29,3031.23,600.45,616.60,8.72,0000 0000 0000 0000 000000
2015-11-12 08:39:17,0.21,1.21,0.00,15.27,19.14,22.96,15.08,49.88,1023.63,2067.03,2941.50,2744.55,3027.09,599.85,616.06,8.77,0000 0000 0000 0000 000000
2015-11-12 08:44:18,0.14,1.22,0.00,15.32,19.16,22.99,15.07,49.71,1023.76,2067.01,2938.64,2742.54,3024.82,600.04,616.28,8.82,0000 0000 0000 0000 000000
2015-11-12 08:49:20,0.09,1.23,0.00,15.34,19.18,23.05,15.10,49.72,1023.93,2067.00,2936.55,2741.08,3023.04,599.98,616.21,8.87,0000 0000 0000 0000 000000
2015-11-12 08:54:21,0.10,1.23,0.00,15.35,19.20,23.10,15.13,49.81,1023.84,2067.00,2934.78,2739.90,3021.57,600.08,616.37,8.92,0000 0000 0000 0000 000000
2015-11-12 08:59:22,0.06,1.24,0.00,15.36,19.22,23.11,15.01,49.64,1023.87,2066.99,2933.30,2738.90,3020.29,599.97,616.14,8.97,0000 0000 0000 0000 000000
2015-11-12 09:04:23,0.08,1.24,0.00,15.42,19.24,23.13,15.09,49.88,1023.79,2066.99,2931.81,2737.90,3018.96,599.97,615.97,9.02,0000 0000 0000 0000 000000
2015-11-12 09:09:24,0.08,1.24,0.00,15.44,19.27,23.13,15.07,49.69,1023.79,2066.97,2930.37,2736.90,3017.68,600.26,616.30,9.07,0000 0000 0000 0000 000000
2015-11-12 09:14:25,0.08,1.25,0.00,15.40,19.29,23.25,15.10,49.72,1023.90,2066.95,2928.91,2735.92,3016.52,600.00,616.11,9.12,0000 0000 0000 0000 000000
2015-11-12 09:19:27,0.08,1.25,0.00,15.45,19.31,23.20,15.06,49.78,1023.93,2066.81,2927.26,2734.62,3014.99,600.17,616.19,9.17,0000 0000 0000 0000 000000
2015-11-12 09:24:28,0.05,1.25,0.00,15.49,19.33,23.26,15.02,49.77,1023.94,2066.48,2925.62,2733.50,3013.56,599.70,615.81,9.22,0000 0000 0000 0000 000000
2015-11-12 09:29:29,0.11,1.26,0.00,15.49,19.35,23.30,15.04,49.69,1023.94,2066.10,2923.32,2731.71,3011.51,599.87,615.87,9.27,0000 0000 0000 0000 000000
2015-11-12 09:34:30,0.08,1.27,0.00,15.48,19.38,23.29,15.07,49.62,1023.95,2066.05,2921.42,2730.38,3009.99,600.29,616.26,9.32,0000 0000 0000 0000 000000
2015-11-12 09:39:31,0.04,1.27,0.00,15.54,19.39,23.34,15.07,49.66,1024.01,2066.04,2920.31,2729.83,3009.07,600.00,615.86,9.37,0000 0000 0000 0000 000000
2015-11-12 09:44:32,0.05,1.27,0.00,15.55,19.42,23.29,15.14,49.80,1024.14,2066.00,2919.28,2728.96,3008.09,600.11,615.95,9.42,0000 0000 0000 0000 000000
2015-11-12 09:49:34,0.08,1.27,0.00,15.53,19.43,23.38,15.09,49.78,1024.27,2066.01,2917.91,2727.96,3006.94,599.99,616.02,9.47,0000 0000 0000 0000 000000
2015-11-12 09:54:35,0.09,1.28,0.00,15.53,19.45,23.48,15.05,49.75,1024.40,2066.00,2916.67,2726.89,3005.63,599.80,615.93,9.52,0000 0000 0000 0000 000000
2015-11-12 09:59:36,0.10,1.28,0.00,15.58,19.47,23.50,15.10,49.76,1024.40,2065.98,2915.00,2725.42,3003.88,599.80,615.83,9.57,0000 0000 0000 0000 000000
2015-11-12 10:04:37,0.06,1.29,0.00,15.59,19.49,23.48,15.14,49.77,1024.42,2065.97,2913.83,2724.64,3002.86,600.07,616.15,9.62,0000 0000 0000 0000 000000
2015-11-12 10:09:39,0.08,1.29,0.00,15.58,19.51,23.50,15.18,49.74,1024.43,2065.92,2912.60,2723.58,3001.65,600.51,616.50,9.67,0000 0000 0000 0000 000000
2015-11-12 10:14:40,0.04,1.29,0.00,15.59,19.53,23.56,15.11,49.88,1024.43,2065.85,2911.53,2722.80,3000.65,600.24,616.26,9.72,0000 0000 0000 0000 000000
2015-11-12 10:19:41,0.03,1.30,0.00,15.64,19.54,23.56,15.14,49.77,1024.45,2065.58,2910.23,2721.94,2999.66,600.00,615.98,9.77,0000 0000 0000 0000 000000
2015-11-12 10:24:43,0.03,1.30,0.00,15.65,19.57,23.61,15.10,49.75,1024.46,2065.22,2909.15,2721.09,2998.61,599.80,615.71,9.83,0000 0000 0000 0000 000000
2015-11-12 10:29:44,0.05,1.30,0.00,15.63,19.58,23.56,15.04,49.61,1024.43,2065.06,2908.03,2720.50,2997.71,599.74,615.75,9.88,0000 0000 0000 0000 000000
2015-11-12 10:34:45,0.07,1.30,0.00,15.62,19.59,23.58,15.08,49.91,1024.44,2065.04,2906.79,2719.66,2996.65,599.79,615.80,9.93,0000 0000 0000 0000 000000
2015-11-12 10:39:47,0.07,1.31,0.00,15.67,19.61,23.65,15.05,49.83,1024.45,2065.00,2905.63,2718.67,2995.57,599.89,615.75,9.98,0000 0000 0000 0000 000000
2015-11-12 10:44:48,0.05,1.31,0.00,15.67,19.62,23.63,15.05,49.83,1024.48,2065.00,2904.56,2717.99,2994.50,599.62,615.65,10.03,0000 0000 0000 0000 000000
2015-11-12 10:49:49,0.06,1.31,0.00,15.67,19.64,23.62,15.10,49.74,1024.65,2065.00,2903.60,2717.17,2993.66,599.48,615.55,10.08,0000 0000 0000 0000 000000
2015-11-12 10:54:50,0.07,1.32,0.00,15.67,19.65,23.72,15.08,49.68,1024.80,2065.00,2902.32,2716.32,2992.58,599.95,616.03,10.13,0000 0000 0000 0000 000000
2015-11-12 10:59:52,0.05,1.32,0.00,15.70,19.67,23.76,15.06,49.43,1024.90,2065.00,2901.19,2715.67,2991.67,599.69,615.76,10.18,0000 0000 0000 0000 000000
2015-11-12 11:04:53,0.05,1.32,0.00,15.70,19.68,23.73,15.05,49.47,1025.00,2064.99,2899.99,2714.95,2990.72,599.76,615.89,10.23,0000 0000 0000 0000 000000
2015-11-12 11:09:54,0.07,1.33,0.00,15.69,19.69,23.74,15.10,49.35,1025.22,2064.98,2898.80,2714.07,2989.71,599.74,616.03,10.28,0000 0000 0000 0000 000000
2015-11-12 11:14:56,0.07,1.33,0.00,15.70,19.71,23.80,15.16,49.71,1025.08,2064.98,2897.63,2713.15,2988.65,600.09,616.36,10.33,0000 0000 0000 0000 000000
2015-11-12 11:19:57,0.04,1.33,0.00,15.76,19.73,23.79,15.11,49.67,1024.92,2064.98,2896.70,2712.68,2987.82,600.12,616.00,10.38,0000 0000 0000 0000 000000
2015-11-12 11:24:58,0.04,1.33,0.00,15.77,19.74,23.75,15.04,49.56,1024.92,2064.82,2895.56,2711.82,2986.76,599.69,615.60,10.43,0000 0000 0000 0000 000000
2015-11-12 11:29:59,0.09,1.34,0.00,15.75,19.76,23.81,15.14,49.77,1024.92,2064.51,2893.63,2710.49,2985.45,600.40,616.39,10.48,0000 0000 0000 0000 000000
2015-11-12 11:35:00,0.06,1.34,0.00,15.74,19.77,23.77,15.09,49.85,1024.92,2064.25,2891.67,2709.36,2984.04,600.14,616.15,10.53,0000 0000 0000 0000 000000
2015-11-12 11:40:02,0.04,1.34,0.00,15.79,19.78,23.81,15.10,50.02,1024.92,2064.16,2890.64,2708.76,2983.12,599.90,615.80,10.58,0000 0000 0000 0000 000000
2015-11-12 11:45:03,0.04,1.35,0.00,15.79,19.79,23.83,15.10,49.89,1024.92,2064.03,2889.68,2708.04,2982.38,600.50,616.41,10.63,0000 0000 0000 0000 000000
2015-11-12 11:50:04,0.05,1.35,0.00,15.77,19.79,23.85,15.07,49.92,1024.92,2064.01,2888.70,2707.56,2981.65,600.15,616.10,10.68,0000 0000 0000 0000 000000
2015-11-12 11:55:05,0.05,1.35,0.00,15.75,19.82,23.85,15.11,50.01,1024.92,2064.01,2887.61,2706.83,2980.71,600.14,616.12,10.73,0000 0000 0000 0000 000000
2015-11-12 12:00:07,0.06,1.36,0.00,15.78,19.82,23.87,15.14,50.09,1024.92,2064.02,2886.54,2706.04,2979.75,600.31,616.19,10.78,0000 0000 0000 0000 000000
2015-11-12 12:05:08,0.07,1.36,0.00,15.79,19.82,23.90,15.10,50.03,1024.92,2064.00,2885.43,2705.31,2978.69,599.97,615.68,10.83,0000 0000 0000 0000 000000
2015-11-12 12:10:09,0.05,1.36,0.00,15.79,19.84,23.90,15.11,49.88,1024.98,2064.00,2884.26,2704.54,2977.82,600.10,615.92,10.88,0000 0000 0000 0000 000000
2015-11-12 12:15:11,0.02,1.36,0.00,15.78,19.84,23.97,15.14,50.02,1025.02,2064.00,2883.50,2704.01,2977.13,600.16,616.17,10.93,0000 0000 0000 0000 000000
2015-11-12 12:20:12,0.08,1.37,0.00,15.80,19.84,23.94,15.10,49.87,1025.13,2064.00,2882.50,2703.30,2976.31,600.15,616.07,10.98,0000 0000 0000 0000 000000
2015-11-12 12:25:13,0.04,1.37,0.00,15.82,19.86,23.95,15.11,49.64,1025.32,2064.00,2881.31,2702.77,2975.39,600.04,616.16,11.03,0000 0000 0000 0000 000000
2015-11-12 12:30:15,0.05,1.37,0.00,15.81,19.87,23.93,15.10,49.41,1025.41,2063.99,2880.32,2701.95,2974.44,599.91,616.05,11.08,0000 0000 0000 0000 000000
2015-11-12 12:35:16,0.06,1.38,0.00,15.79,19.87,23.99,15.12,49.27,1025.51,2063.99,2879.19,2701.12,2973.50,600.26,616.52,11.13,0000 0000 0000 0000 000000
2015-11-12 12:40:17,0.08,1.38,0.00,15.83,19.88,24.01,15.19,49.38,1025.78,2063.99,2877.83,2700.23,2972.47,600.46,616.80,11.18,0000 0000 0000 0000 000000
2015-11-12 12:45:18,0.08,1.38,0.00,15.87,19.89,23.89,15.07,49.35,1025.80,2063.99,2876.38,2699.22,2971.30,600.18,616.27,11.23,0000 0000 0000 0000 000000
2015-11-12 12:50:20,0.07,1.39,0.00,15.87,19.91,23.92,15.09,49.38,1025.87,2063.99,2875.00,2698.20,2970.05,599.83,616.06,11.28,0000 0000 0000 0000 000000
2015-11-12 12:55:21,0.09,1.39,0.00,15.87,19.92,23.98,15.12,49.22,1025.87,2063.98,2873.57,2697.17,2968.76,600.47,616.79,11.33,0000 0000 0000 0000 000000
2015-11-12 13:00:23,0.06,1.40,0.00,15.87,19.94,23.95,15.09,49.37,1025.89,2063.97,2872.36,2696.23,2967.69,599.91,616.27,11.38,0000 0000 0000 0000 000000